Las Vegas, NM

3:58 AM MST on November 21, 2017 (GMT -0700)
Las Vegas Municipal

Weather History for KLVS - February, 2013

Change the Weather History Date:

Monday, February 11, 2013

  Actual Average Record
Temperature  
Mean Temperature 22 °F -  
Max Temperature 34 °F 48 °F 73 °F (1951)
Min Temperature 10 °F 18 °F -13 °F (1948)
Degree Days  
Heating Degree Days 43    
Moisture  
Dew Point 17 °F    
Average Humidity 79    
Maximum Humidity 100    
Minimum Humidity 37    
Precipitation  
Precipitation 0.02 in - - ()
Sea Level Pressure  
Sea Level Pressure 29.98 in    
Wind  
Wind Speed 8 mph (NNE)    
Max Wind Speed 18 mph    
Max Gust Speed 26 mph    
Visibility 6 miles    
Events Snow    
Averages and records for this station are not official NWS values.
T = Trace of Precipitation, MM = Missing Value Source: NWS Daily Summary

Daily Weather History Graph

Daily Weather History Graph

Search for Another Location

Airport or City:

Trip Planner

Search our weather history database for the weather conditions in past years. The results will help you decide how hot, cold, wet, or windy it might be!

Date:

Astronomy

Feb. 11, 2013 Rise Set
Actual Time 6:51 AM MST 5:38 PM MST
Civil Twilight 6:24 AM MST 6:05 PM MST
Nautical Twilight 5:54 AM MST 6:35 PM MST
Astronomical Twilight 5:25 AM MST 7:04 PM MST
Moon 7:22 AM MST (2/11) 7:32 PM MST (2/11)
Length of Visible Light 11h 40m
Length of Day
10h 47m
Waxing Crescent, 3% of the Moon is Illuminated
Feb 11
Waxing Crescent
Feb 17
First Quarter
Feb 25
Full
Mar 4
Last Quarter
Mar 11
New

Hourly Weather History & Observations

Time (MST) Temp. Windchill Dew Point Humidity Pressure Visibility Wind Dir Wind Speed Gust Speed Precip Events Conditions
12:53 AM 12.9 °F 1.6 °F 1.9 °F 62% 29.97 in 10.0 mi NNE 8.1 mph - N/A   Clear
1:53 AM 12.0 °F -0.4 °F 1.9 °F 64% 29.98 in 10.0 mi NNE 9.2 mph - N/A   Clear
2:53 AM 12.0 °F 0.5 °F 3.0 °F 67% 29.99 in 10.0 mi North 8.1 mph - N/A   Clear
3:53 AM 10.9 °F -0.8 °F 3.0 °F 70% 30.00 in 10.0 mi North 8.1 mph - N/A   Clear
4:53 AM 12.0 °F 0.5 °F 5.0 °F 73% 30.02 in 10.0 mi North 8.1 mph - N/A   Clear
5:53 AM 10.9 °F 0.2 °F 3.9 °F 73% 30.06 in 10.0 mi NNE 6.9 mph - N/A   Clear
6:53 AM 10.0 °F -0.9 °F 5.0 °F 80% 30.10 in 10.0 mi NE 6.9 mph - N/A   Clear
7:53 AM 12.9 °F 1.6 °F 6.1 °F 74% 30.13 in 10.0 mi NNE 8.1 mph - N/A   Clear
8:53 AM 19.0 °F 8.2 °F 10.0 °F 68% 30.12 in 10.0 mi NE 9.2 mph - N/A   Clear
9:53 AM 23.0 °F - 12.0 °F 63% 30.11 in 10.0 mi Calm Calm - N/A   Clear
10:53 AM 26.1 °F 19.4 °F 12.9 °F 58% 30.04 in 10.0 mi SSE 5.8 mph - N/A   Clear
11:53 AM 30.0 °F 20.0 °F 12.0 °F 47% 30.02 in 10.0 mi South 12.7 mph 17.3 mph N/A   Clear
12:53 PM 33.1 °F 23.0 °F 12.0 °F 42% 29.99 in 10.0 mi SSW 15.0 mph 24.2 mph N/A   Clear
1:53 PM 32.0 °F 23.6 °F 12.0 °F 44% 29.97 in 10.0 mi South 10.4 mph 20.7 mph N/A   Clear
2:53 PM 34.0 °F 24.6 °F 10.0 °F 37% 29.94 in 10.0 mi SSW 13.8 mph 21.9 mph N/A   Clear
3:53 PM 33.1 °F 21.9 °F 12.0 °F 42% 29.95 in 10.0 mi SSE 18.4 mph 26.5 mph N/A   Clear
4:53 PM 30.9 °F 20.7 °F 12.0 °F 46% 29.97 in 10.0 mi South 13.8 mph - N/A   Overcast
5:53 PM 30.0 °F 23.2 °F 12.9 °F 49% 29.98 in 10.0 mi SSE 6.9 mph - N/A   Overcast
6:28 PM 28.4 °F 19.7 °F 19.4 °F 69% 29.93 in 3.0 mi West 9.2 mph - 0.00 in Snow Light Snow
6:38 PM 26.6 °F 17.5 °F 21.2 °F 80% 29.94 in 2.0 mi WSW 9.2 mph - 0.00 in Snow Light Snow
6:46 PM 26.6 °F 18.2 °F 23.0 °F 86% 29.94 in 1.2 mi West 8.1 mph - 0.00 in Snow Light Snow
6:53 PM 26.1 °F 18.4 °F 24.1 °F 92% 30.04 in 1.2 mi West 6.9 mph - 0.00 in Snow Light Snow
7:08 PM 26.6 °F 17.5 °F 24.8 °F 93% 29.94 in 0.8 mi West 9.2 mph - 0.01 in Snow Light Snow
7:17 PM 24.8 °F 16.9 °F 24.8 °F 100% 29.93 in 0.8 mi NW 6.9 mph - 0.01 in Snow Light Snow
7:24 PM 24.8 °F 17.9 °F 24.8 °F 100% 29.94 in 0.8 mi NW 5.8 mph - 0.02 in Snow Light Snow
7:31 PM 24.8 °F 17.9 °F 24.8 °F 100% 29.94 in 1.0 mi NW 5.8 mph - 0.02 in Snow Light Snow
7:53 PM 25.0 °F 19.3 °F 24.1 °F 96% 30.03 in 1.8 mi NW 4.6 mph - 0.02 in Snow Light Snow
8:02 PM 24.8 °F 19.1 °F 23.0 °F 93% 29.94 in 2.5 mi NW 4.6 mph - 0.00 in Snow Light Snow
8:16 PM 24.8 °F 20.5 °F 23.0 °F 93% 29.93 in 3.0 mi NNW 3.5 mph - 0.00 in Snow Light Snow
8:37 PM 24.8 °F - 21.2 °F 86% 29.94 in 2.5 mi Calm Calm - 0.00 in Snow Light Snow
8:45 PM 24.8 °F 20.5 °F 23.0 °F 93% 29.94 in 3.0 mi NNE 3.5 mph - 0.00 in   Overcast
8:53 PM 24.1 °F 19.7 °F 21.9 °F 91% 30.00 in 5.0 mi NE 3.5 mph - 0.00 in   Overcast
9:05 PM 23.0 °F 18.4 °F 23.0 °F 100% 29.93 in 1.8 mi NE 3.5 mph - N/A   Overcast
9:08 PM 23.0 °F 18.4 °F 21.2 °F 93% 29.93 in - ENE 3.5 mph - N/A   Overcast
9:25 PM 21.2 °F 14.9 °F 19.4 °F 93% 29.94 in 2.0 mi East 4.6 mph - N/A   Overcast
9:32 PM 21.2 °F 16.4 °F 21.2 °F 100% 29.94 in 1.2 mi ENE 3.5 mph - N/A   Mostly Cloudy
9:46 PM 23.0 °F 17.0 °F 21.2 °F 93% 29.94 in 3.0 mi ENE 4.6 mph - N/A   Overcast
9:53 PM 23.0 °F 17.0 °F 21.9 °F 96% 29.99 in 8.0 mi NE 4.6 mph - N/A   Overcast
10:21 PM 21.2 °F 12.6 °F 21.2 °F 100% 29.94 in 9.0 mi NNE 6.9 mph - N/A   Overcast
10:46 PM 23.0 °F 14.7 °F 21.2 °F 93% 29.95 in 9.0 mi East 6.9 mph - N/A   Overcast
10:53 PM 24.1 °F 17.0 °F 21.9 °F 91% 29.98 in 8.0 mi East 5.8 mph - N/A   Overcast
11:16 PM 24.8 °F 17.9 °F 23.0 °F 93% 29.94 in 8.0 mi East 5.8 mph - N/A   Overcast
11:48 PM 24.8 °F 19.1 °F 23.0 °F 93% 29.93 in 9.0 mi ENE 4.6 mph - N/A   Overcast
11:53 PM 24.1 °F 17.0 °F 23.0 °F 96% 29.95 in 9.0 mi ENE 5.8 mph - N/A   Overcast